Terminal Aerodrome Forecast
Issued by NWS Shreveport, LA

Home | Current Version | Previous Version | Text Only | Print | Product List | Glossary On
Versions: 1 2 3 4 5 6 7 8 9 10 11 12 13 14 15
000
FTUS44 KSHV 030400 AAA
TAFTXK
TAF AMD
KTXK 030417Z 0304/0324 07004KT 1SM BR OVC002
      TEMPO 0304/0308 3SM BR OVC005
     FM030800 11004KT 1/2SM FG OVC002
      TEMPO 0309/0313 3SM BR OVC006
     FM031300 17005KT P6SM BKN010
     FM031700 20008KT P6SM SCT020
      TEMPO 0317/0320 BKN015=

USA.gov is the U.S. government's official web portal to all federal, state and local government web resources and services.